Location: San Antonio
(29.4240°N, 98.4930°W)
Time: 04:58:17
(UTC-05:00)

ISS - All Passes

Search period start: 27 August 2016 00:00
Search period end: 06 September 2016 00:00
Orbit: 402 x 406 km, 51.6° (Epoch: 27 August)

Date Brightness Start Highest point End Pass type
(mag) Time Alt. Az. Time Alt. Az. Time Alt. Az.
27 Aug - 08:14:45 10° S 08:17:23 23° SE 08:20:02 10° ENE daylight
27 Aug - 09:51:11 10° W 09:53:46 21° NW 09:56:22 10° NNE daylight
27 Aug - 16:23:30 10° N 16:25:59 19° NE 16:28:25 10° E daylight
27 Aug - 17:59:38 10° WNW 18:02:24 25° SW 18:05:09 10° S daylight
28 Aug - 07:24:51 10° SE 07:25:08 10° SE 07:25:24 10° ESE daylight
28 Aug - 08:58:06 10° WSW 09:01:14 43° NW 09:04:24 10° NNE daylight
28 Aug - 15:32:28 10° NNE 15:33:19 11° NE 15:34:11 10° NE daylight
28 Aug - 17:06:49 10° NW 17:10:03 63° SW 17:13:17 10° SSE daylight
29 Aug - 08:05:33 10° SW 08:08:48 75° SE 08:12:04 10° NE daylight
29 Aug - 16:14:25 10° NNW 16:17:38 51° NE 16:20:49 10° ESE daylight
30 Aug - 07:13:32 10° SSW 07:16:25 30° SE 07:19:20 10° ENE daylight
30 Aug - 08:50:38 10° W 08:52:54 17° NW 08:55:11 10° N daylight
30 Aug - 15:22:21 10° NNW 15:25:05 24° NE 15:27:49 10° E daylight
30 Aug - 16:58:58 10° WNW 17:01:25 19° SW 17:03:51 10° S daylight
31 Aug - 06:22:27 10° SSE 06:24:07 13° SE 06:25:46 10° E visible
31 Aug - 07:57:18 10° WSW 08:00:18 33° NW 08:03:19 10° NNE daylight
31 Aug - 14:30:49 10° N 14:32:25 13° NE 14:34:04 10° ENE daylight
31 Aug - 16:05:55 10° NW 16:09:04 45° SW 16:12:12 10° SSE daylight
01 Sep - 07:04:32 10° SW 07:07:47 80° NW 07:11:03 10° NE daylight
01 Sep - 15:13:21 10° NW 15:16:37 70° NE 15:19:52 10° SE daylight
02 Sep - 06:12:17 10° SSW 06:15:22 39° SE 06:18:26 10° ENE visible
02 Sep - 07:50:04 10° WNW 07:51:56 14° NW 07:53:48 10° N daylight
02 Sep - 14:21:08 10° NNW 14:24:05 30° NE 14:27:01 10° ESE daylight
02 Sep - 15:58:20 10° W 16:00:18 15° SW 16:02:17 10° SSW daylight
03 Sep - 05:20:45 10° S 05:22:59 17° SE 05:25:13 10° E visible
03 Sep - 06:56:27 10° W 06:59:15 26° NW 07:02:06 10° NNE daylight
03 Sep - 13:29:19 10° N 13:31:25 16° NE 13:33:30 10° ENE daylight
03 Sep - 15:04:56 10° WNW 15:07:56 34° SW 15:10:56 10° SSE daylight
04 Sep - 06:03:27 10° SW 06:06:41 59° NW 06:09:55 10° NE visible
04 Sep - 14:12:13 10° NW 14:15:29 87° SW 14:18:45 10° SE daylight
05 Sep - 05:11:00 10° SSW 05:14:10 54° SE 05:17:23 10° NE visible
05 Sep - 06:49:35 10° WNW 06:50:51 12° NW 06:52:08 10° NNW visible
05 Sep - 13:19:51 10° NNW 13:22:56 38° NE 13:26:01 10° ESE daylight
05 Sep - 14:57:53 10° WSW 14:59:05 12° SW 15:00:16 10° SSW daylight
